Regional Weather Roundup
Issued by NWS Newport/Morehead, NC

Current Version | Previous Version | Graphics & Text | Print | Product List | Glossary Off
Versions: 1 2 3 4 5 6 7 8 9 10 11 12 13 14 15 16 17 18 19 20 21 22 23 24 25 26 27 28 29 30 31 32 33 34 35 36 37 38 39 40 41 42 43 44 45 46 47 48 49 50

000
ASUS42 KMHX 241113
RWRMHX
WEATHER ROUNDUP FOR EASTERN NORTH CAROLINA
NATIONAL WEATHER SERVICE NEWPORT/MOREHEAD CITY NC
700 AM EDT THU MAY 24 2018

NOTE: "FAIR" INDICATES FEW OR NO CLOUDS BELOW 12,000 FEET
WITH NO SIGNIFICANT WEATHER AND/OR OBSTRUCTIONS TO VISIBILITY

NCZ015>017-031-032-045>047-102-103-241200-
NORTH COAST

CITY           SKY/WX    TMP DP  RH WIND       PRES   REMARKS
EDENTON        FAIR      69  66  91 CALM      30.14R
ELIZABETH CITY FAIR      68  67  96 CALM      30.13R
KITTY HAWK     FAIR      68  65  88 N3        30.11R
MANTEO         FAIR      70  64  81 NE8       30.13R

$$

NCZ045>047-081-094-103-104-241200-
CENTRAL COAST

CITY           SKY/WX    TMP DP  RH WIND       PRES   REMARKS
FRISCO         FAIR      73  68  84 N6        30.11R

$$

NCZ095-097-098-100-101-241200-
SOUTHERN COAST

CITY           SKY/WX    TMP DP  RH WIND       PRES   REMARKS
BEAUFORT       FAIR      72  71  97 W5        30.10R
CEDAR ISLAND   NOT AVBL
JACKSONVILLE   CLOUDY    73  72  96 S5        30.10R
PINEY ISLAND   NOT AVBL
WILMINGTON     LGT RAIN  72  68  87 SW3       30.10R


$$

NCZ011>013-027>030-043-044-078>080-089-090>093-098-241200-
COASTAL PLAIN

CITY           SKY/WX    TMP DP  RH WIND       PRES   REMARKS
AHOSKIE        PTSUNNY   66  65  96 N5        30.14R
CLINTON        MOCLDY    72  72 100 CALM      30.10S
ELIZABETHTOWN  CLOUDY    72  70  93 S5        30.11R
GOLDSBORO      CLOUDY    72  72 100 NE9       30.10R FOG
GREENVILLE     PTSUNNY   70  70 100 E3        30.14R
HAVELOCK       NOT AVBL
KENANSVILLE    CLOUDY    70  70 100 CALM      30.11R FOG
KINSTON        CLOUDY    70  70 100 NE6       30.12R FOG
NEW BERN       CLOUDY    70  69  97 CALM      30.12R
RICHLANDS      CLOUDY    71  70  96 S3        30.11R
ROCKY MOUNT    FAIR      70  68  93 NE7       30.14R
WASHINGTON     FOG       67  67  97 CALM      30.13R VSB 1/2
WHITEVILLE     CLOUDY    71  68  92 CALM      30.10R

$$

AMZ130-135-150-152-154-156-158-170-250-252-270-ANZ085-086-088-633-658-670-241200-
MARINE OBSERVATIONS

STATION/POSITION TIME  TEMP    WIND        PRES    WAVE   SWELL
                       AIR SEA DIR/SP/G            HT/PER HT/PER
                 (UTC) (F)     (DEG/KT/KT) (MB)    (FT/S) (FT/S)
CHESAPEAKE LIGHT NOT AVBL
64 E VA BEACH    1050   67 66  340/  8/ 10 1019.9    3/ 6   3/ 6
DUCK             1048   69 63   40/  9/ 10 1019.6
2 E DUCK         1030      68                N/A     2/ 8
OREGON INLET     1042   69 77  330/  4/  7 1019.5
13E OREGON INLT  1048      68                N/A     3/ 6   3/ 6
HATTERAS CG      1048   75 75   10/  9/ 11 1019.1
DIAMOND BUOY     1100   73 74  330/ 10/ 12 1019.6
CAPE LOOKOUT     1100          280/  8/  9 1019.3
BEAUFORT LAB     1048   72 77   CALM  /  4 1019.4
30 SE NEW RVR IN 1008   72     250/  6/ 10 1019.1
30 SE NEW RVR IN 1030      75                N/A     3/ 7
27 SE WRIGHTSVLE 1008   75 75  280/  8/ 14 1019.0
5 SE WRIGHTSVLE  1008   72 73  220/  2/  4 1018.2
225 S CAPE HAT   1050      78  270/  8/  8 1019.3    3/ 7   3/ 7
41 SE CHARLESTON 1050      74  250/  2/  4 1019.7    3/ 8   3/ 8

$$




USA.gov is the U.S. government's official web portal to all federal, state and local government web resources and services.